Volver al catálogo

USA 473

ActivoMilitarVLEO
NORAD 62542·PAYLOAD·🇺🇸 United States

Lanzado Jan 10, 2025 desde Vandenberg Space Force Base

Loading…

Próximos Pases (próximas 24 horas)

TLE

ObsoletoSource: Mike McCants

Época: Aug 21, 2026, 20:57 UTC

1 62542U 25005L   26233.87340963 0.00000000  00000-0  00000-0 0    00
2 62542  70.0200 252.1175 0003000 135.4484 224.5515 14.96713439    06

Sigue USA 473 en tiempo real con AllMySat

Download on the App Store